Hovedside
METAR-TAF:

METAR-TAF

Lufthavner :

Svolvær, Norge

Svolvær lufthavn

breddegrad: 68-15N, lengdegrad: 014-40E, høyde over havet: 0 m

Gjeldene værobservasjon

Denne rapporten ble laget for 2 timer og 47 minutter siden, klokken 19:50 UTC
Vind 8 kt fra Nord-nordvest
Temperatur 16°C
Luftfuktighet 68%
Trykk 1019 hPa
Sikt 10 km eller mer
ingen skyer under 1500 m og ingen bygeskyer

METAR: ENSH 241950Z 33008KT CAVOK 16/10 Q1019

Tid: 00:37 (22:37 UTC)

Varsel

Denne rapporten ble laget for 2 timer og 48 minutter siden, klokken 19:49 UTC
Varsel gyldig fra 24. klokken 19 UTC til 24. klokken 20 UTC
Vind 8 kt fra Nord-nordvest
Sikt 10 km eller mer
ingen skyer under 1500 m og ingen bygeskyer

TAF: ENSH 241949Z 2419/2420 33008KT CAVOK

Værobservasjoner og værvarsel for over 4000 flyplasser (METAR- og TAF-rapporter).

Tilgjengelige stasjoner er representert av de røde og gule prikkene på kartet.

Hold musepekeren over prikken for å se navnet på stasjonen.

Klikk så for å se værobservasjoner og -varsler.

For å forandre kartet kan du klikke på den grønne knappen med svart kryss for å zoome inn, på den grønne knappen med strek for å zoome ut, eller på de grønne pilene for å se tilstøtende kart.


METAR-TAF: